Regional Weather Roundup
Issued by NWS

Home | Current Version | Previous Version | Graphics & Text | Print | Product List | Glossary On
Versions: 1 2 3 4 5 6 7 8 9 10 11 12 13 14 15 16 17 18 19 20 21 22 23 24 25 26 27 28 29 30 31 32 33 34 35 36 37 38 39 40 41 42 43 44 45 46 47 48 49 50
000
ASUS43 KBIS 281002
RWRND

NORTH DAKOTA REGIONAL WEATHER ROUNDUP
NATIONAL WEATHER SERVICE BISMARCK ND
500 AM CDT THU MAY 28 2015

NOTE: "FAIR" INDICATES FEW OR NO CLOUDS BELOW 12,000 FEET WITH NO
SIGNIFICANT WEATHER AND/OR OBSTRUCTIONS TO VISIBILITY.


NDZ001>003-009>011-017-281100-
NORTHWEST NORTH DAKOTA

CITY           SKY/WX    TMP DP  RH WIND       PRES   REMARKS
WILLISTON      CLOUDY    56  54  93 CALM      29.88S
MINOT          CLOUDY    58  56  93 E7        29.88F
MINOT AFB      LGT RAIN  58  58 100 E10       29.88S FOG
$$

NDZ018>021-031>035-040>046-281100-
SOUTHWEST NORTH DAKOTA

CITY           SKY/WX    TMP DP  RH WIND       PRES   REMARKS
BISMARCK       PTCLDY    57  55  93 SE5       29.89F
DICKINSON      FOG       49  47  93 W3        29.88S VSB 1
GARRISON         N/A     59  56  89 SE5       29.88S
HETTINGER ARPT FOG       48  46  93 CALM      29.91S VSB 1/2
$$

NDZ004>008-012>016-024-026-027-054-281100-
NORTHEAST NORTH DAKOTA

CITY           SKY/WX    TMP DP  RH WIND       PRES   REMARKS
GRAND FORKS    LGT RAIN  56  54  93 W5        29.97R
GRND FRKS AFB  LGT RAIN  56  54  92 E2        29.97R
DEVILS LAKE    CLOUDY    59  54  82 E8        29.92F
$$

NDZ022-023-025-028>030-036>039-047>053-281100-
SOUTHEAST NORTH DAKOTA

CITY           SKY/WX    TMP DP  RH WIND       PRES   REMARKS
FARGO          LGT RAIN  63  58  83 NW7       29.94F
JAMESTOWN      CLOUDY    60  56  86 SE3       29.91F
$$




USA.gov is the U.S. government's official web portal to all federal, state and local government web resources and services.